Theta_e
326 327 326 326 329 334 333 331 329 327 323 327 325 321 319 318 315 314 314 314 314 313 311 310 309 307 306 305 305 304 304 304 302 302 302 302 301 302 301 301 300 300 300
328 329 329 329 329 334 333 330 329 327 327 328 324 323 319 316 315 315 314 314 313 311 309 308 307 306 305 304 304 303 304 303 303 302 302 301 301 302 300 299 298 298 298
330 331 331 331 334 334 331 330 329 327 329 326 323 320 318 316 315 315 314 313 311 309 308 307 306 305 304 304 304 303 303 303 302 302 302 301 299 300 299 298 297 297 297
331 332 333 333 332 331 330 330 329 329 327 320 319 318 317 316 316 315 315 313 310 309 307 306 305 304 304 303 303 303 302 302 302 301 300 300 299 298 298 298 297 297 296
331 333 333 332 331 330 329 331 330 324 320 319 318 317 318 316 316 314 314 313 311 310 307 305 305 304 303 303 302 301 300 300 300 300 300 299 299 298 298 296 296 296 295
333 331 333 332 332 332 331 324 322 320 319 319 318 318 318 316 314 313 313 311 310 307 305 305 304 303 302 302 300 299 299 299 299 299 299 299 298 297 297 295 295 295 295
331 329 330 328 327 325 322 321 321 320 319 319 319 318 317 315 312 310 309 306 305 305 304 304 303 302 300 298 298 297 298 298 299 299 298 298 297 297 296 295 295 294 294
328 326 325 323 323 323 322 321 320 319 319 319 318 316 314 312 310 307 306 306 305 305 304 303 300 298 298 297 297 297 297 297 298 298 298 297 296 296 295 294 294 291 292
326 324 322 321 321 322 322 321 320 319 319 318 315 313 310 308 306 306 305 305 304 303 300 298 297 297 297 296 296 297 297 298 297 296 296 296 295 295 294 293 293 293 291
326 323 322 321 321 321 321 321 320 318 317 315 313 310 308 306 305 305 305 304 301 299 298 297 296 296 296 296 296 296 297 296 295 296 295 295 294 294 293 293 292 291 291
326 324 322 322 321 321 321 321 320 317 315 313 310 307 305 304 305 304 302 300 298 298 297 297 296 296 296 296 296 296 296 294 293 294 294 293 293 292 292 291 291 291 290
326 324 323 322 322 322 321 321 320 315 313 309 307 304 305 304 303 302 300 298 298 297 297 296 296 296 295 295 296 295 295 293 294 293 293 292 291 291 291 289 288 287 286
325 324 323 323 322 321 320 318 316 314 309 306 305 304 304 303 301 300 298 298 297 297 296 296 295 295 294 294 293 293 294 293 293 292 292 291 290 288 288 286 285 284 284
324 324 323 323 321 320 318 316 313 309 306 305 304 303 302 301 299 298 298 298 297 296 296 295 295 294 293 293 293 293 292 292 291 291 290 289 288 286 285 284 283 283 283
322 323 323 322 320 318 316 313 309 307 305 304 303 300 299 299 299 298 298 297 296 296 295 295 295 294 293 292 291 290 290 290 290 289 288 287 286 285 284 283 283 282 282
321 322 322 320 318 316 313 309 307 306 305 302 300 299 298 298 298 297 296 295 295 295 294 294 294 292 291 291 291 289 288 287 287 287 287 286 285 285 284 283 282 281 281
318 321 320 319 317 313 311 307 306 304 300 300 299 298 297 297 296 295 295 295 294 294 294 294 292 291 291 290 290 288 286 286 286 287 286 285 285 284 284 282 281 280 280
318 318 318 317 314 310 308 306 304 300 300 299 297 295 295 295 295 295 295 294 294 294 293 292 291 291 291 290 289 287 286 286 286 286 286 285 285 283 282 281 280 279 280
317 317 316 313 309 307 304 301 301 300 298 296 295 295 295 294 294 294 294 294 294 293 292 291 290 289 289 290 289 286 285 285 286 285 285 285 284 283 282 280 277 278 279
316 315 310 308 305 301 301 300 298 297 296 295 295 294 294 294 294 294 294 293 293 292 291 291 290 289 289 289 288 286 285 284 284 285 284 284 283 281 280 278 277 278 278
313 308 306 304 301 300 299 298 297 296 295 295 294 294 293 293 293 293 293 293 292 292 290 290 289 289 288 288 288 286 285 284 284 283 283 283 282 281 280 277 277 278 278
305 303 301 300 299 297 295 294 295 295 294 294 293 293 293 292 293 293 293 292 292 290 290 289 289 289 288 288 288 287 285 284 283 282 282 283 282 281 279 278 278 278 278
300 299 298 297 296 295 294 294 294 293 293 293 292 292 292 292 293 292 292 291 291 289 289 289 289 289 288 288 287 287 285 284 283 281 282 282 281 280 280 280 279 278 279
298 297 296 296 295 294 295 295 294 293 292 292 292 292 292 292 292 291 292 291 291 290 289 289 289 288 288 287 287 287 285 284 282 282 282 282 281 281 281 281 281 280 280
295 295 295 295 295 295 294 293 293 292 292 292 292 292 292 292 292 292 291 291 290 290 289 289 288 288 288 287 286 286 286 285 284 283 282 281 281 283 282 282 281 280 280
295 296 296 296 294 293 293 292 292 292 292 292 292 292 292 291 291 291 291 290 289 289 289 289 288 287 287 286 285 284 284 283 282 281 281 281 282 283 282 282 281 281 280
Wind_Speed
13 14 13 13 22 27 28 28 22 19 16 11 10 9 10 10 10 8 7 7 7 4 4 3 4 4 7 8 9 10 13 14 18 19 22 16 19 19 20 19 21 22 19
12 13 12 11 13 25 26 27 22 17 18 13 11 13 13 12 12 12 10 8 7 5 2 3 3 6 8 10 10 13 15 16 14 21 21 6 14 13 22 22 21 20 20
14 12 15 14 13 19 21 20 19 19 19 17 16 18 16 16 15 13 13 11 7 3 1 1 4 5 7 10 14 14 14 18 20 18 15 6 4 16 15 20 23 25 22
15 14 14 14 14 15 17 21 23 22 18 19 19 19 16 15 15 16 16 11 9 5 2 3 5 6 8 11 13 16 19 18 18 17 16 20 19 5 7 7 18 19 17
14 14 18 20 17 20 25 26 24 20 20 16 16 16 9 12 10 6 9 7 7 9 8 8 9 7 8 12 15 15 18 19 19 15 16 17 16 15 10 7 11 19 18
10 10 24 25 26 27 23 23 22 20 19 13 13 16 10 10 10 8 7 5 9 4 4 2 5 9 14 13 16 18 20 21 20 17 16 14 8 11 13 5 10 13 18
10 11 13 17 21 19 19 20 20 19 17 14 11 8 7 6 5 3 3 1 5 7 7 9 9 11 15 18 18 20 21 22 20 17 16 15 15 19 16 14 13 8 17
11 13 15 19 20 18 18 18 18 18 18 14 12 10 9 8 6 4 3 4 6 7 8 9 10 12 15 17 18 20 22 23 20 17 15 15 15 14 14 16 12 5 11
13 14 18 21 22 20 19 17 18 18 19 15 14 12 9 4 4 3 3 4 4 4 6 10 12 15 16 18 19 20 20 17 14 14 13 15 14 12 13 13 12 11 7
13 13 17 18 23 23 20 20 15 21 19 16 13 11 9 5 5 4 4 4 4 5 8 10 12 15 17 18 19 22 12 16 18 16 16 14 11 12 13 13 16 19 19
13 13 15 22 19 22 21 19 15 21 19 17 14 12 7 4 3 8 4 2 4 6 9 11 14 17 18 18 21 12 14 19 22 20 13 10 10 11 13 17 21 23 20
13 13 16 19 19 18 19 14 14 17 16 15 13 11 7 11 9 6 6 4 5 8 10 12 15 16 17 18 14 14 13 15 15 12 10 9 10 15 17 17 17 19 21
13 13 13 13 16 15 14 16 14 13 15 13 8 10 12 7 5 6 4 5 7 9 11 14 14 15 14 17 20 18 14 12 8 9 9 12 14 15 15 16 20 22 22
12 13 11 12 15 15 14 16 16 14 12 8 12 8 8 4 1 3 4 6 8 11 13 14 15 16 11 13 15 10 6 7 9 10 12 13 12 12 16 17 17 17 20
10 9 8 6 12 13 14 15 16 11 7 9 8 3 3 3 5 6 6 7 10 12 13 15 14 11 11 9 5 7 8 9 12 15 13 12 14 17 16 13 15 13 17
5 5 5 8 12 14 15 16 11 10 10 7 2 7 8 6 3 4 8 11 10 11 14 16 11 12 12 12 12 11 8 9 13 16 12 12 13 9 12 7 9 14 18
5 5 6 9 12 15 17 15 12 9 6 3 6 8 4 4 6 8 12 13 12 13 14 9 13 15 17 15 12 10 8 12 12 13 11 12 12 14 14 14 18 22 18
5 1 4 7 13 16 14 12 11 10 4 2 6 4 4 5 9 11 13 14 13 12 11 11 14 13 13 15 15 11 9 9 14 13 11 12 11 14 14 16 23 17 19
4 4 9 14 14 13 12 12 7 3 2 1 3 4 6 10 10 12 14 14 14 13 13 12 12 14 15 16 16 12 9 10 13 12 12 12 11 13 15 19 18 17 18
4 10 17 17 16 16 11 9 11 9 9 5 4 6 9 11 13 15 13 13 14 17 9 9 12 12 15 16 13 11 8 11 13 12 10 14 9 10 14 16 15 17 18
12 20 18 15 20 18 14 10 7 3 4 7 8 9 12 13 15 16 12 13 16 12 9 13 14 15 15 13 13 13 13 13 12 11 11 11 8 13 19 13 12 14 19
17 16 19 20 16 13 11 11 12 13 12 11 11 11 13 14 14 15 15 16 15 10 12 14 15 16 16 15 17 19 18 14 14 14 13 13 16 20 14 11 11 14 14
23 21 19 17 15 10 5 1 2 7 9 8 11 13 14 14 14 15 15 15 12 10 14 13 15 15 14 16 16 21 19 18 15 12 12 15 14 15 13 10 14 14 13
18 15 12 9 6 2 3 9 9 7 10 11 13 14 15 15 15 16 17 15 12 12 14 14 15 15 14 13 14 13 18 19 16 13 12 9 16 14 13 12 10 9 11
12 9 5 2 7 9 10 8 9 10 12 14 14 15 16 16 17 16 18 17 13 15 17 18 18 16 14 15 15 15 13 15 14 11 13 15 15 12 10 11 10 10 10
6 3 6 8 7 9 10 11 12 12 12 14 15 16 17 17 19 19 19 20 22 23 23 25 25 26 24 22 21 19 18 18 17 15 12 14 17 15 10 11 12 10 10
Wind_Direction
136 132 168 174 153 150 149 161 165 172 172 165 169 166 139 140 126 119 110 120 141 150 148 82 39 38 5 349 335 341 335 328 329 336 326 313 309 319 315 339 346 349 356
151 152 181 178 157 152 152 151 161 178 182 188 174 161 147 140 145 153 158 168 159 154 144 87 26 11 346 337 341 337 323 320 334 332 315 319 311 328 333 333 344 340 343
160 171 174 181 146 136 147 161 177 186 199 172 153 152 154 143 144 160 171 168 152 139 106 25 359 345 341 334 328 326 331 328 322 318 333 331 319 324 320 321 320 321 331
168 172 176 141 139 156 171 184 188 185 184 157 164 160 159 171 186 193 182 164 166 184 222 290 312 313 317 318 318 314 317 317 315 311 308 305 316 326 318 324 316 315 324
177 166 140 154 165 181 190 194 186 173 161 173 166 174 185 165 158 145 144 165 189 219 241 258 269 276 310 316 316 314 312 309 305 303 307 305 302 307 306 307 313 309 311
151 150 152 165 181 184 187 160 163 162 159 184 173 182 194 152 151 170 175 216 243 221 293 272 305 319 326 320 318 315 310 304 295 295 301 294 290 295 283 285 304 302 301
155 157 161 161 150 162 158 163 173 158 170 182 187 181 157 152 157 147 192 284 320 314 322 336 328 315 309 314 312 309 303 301 292 287 294 282 288 286 282 289 283 279 298
159 171 163 163 162 165 166 178 178 166 174 178 176 167 163 178 172 169 220 258 282 297 315 313 312 309 310 307 307 304 302 300 292 297 298 294 291 283 288 279 298 308 303
172 179 173 168 169 172 180 193 184 172 169 183 165 161 169 155 172 234 240 267 272 293 302 321 314 309 307 306 303 298 296 307 315 316 305 291 294 293 287 288 310 301 299
182 190 180 180 174 176 182 195 208 170 170 165 165 171 179 181 245 230 232 237 281 286 308 309 308 306 305 304 302 297 295 314 319 315 304 297 300 298 299 304 297 292 292
190 193 190 181 184 176 185 182 199 170 166 165 173 163 165 214 208 241 257 245 277 295 302 309 308 308 309 309 308 309 314 321 307 304 305 311 311 308 308 301 299 296 304
194 193 199 175 178 168 163 181 194 163 163 165 165 185 230 188 197 239 249 253 282 299 305 311 312 312 316 315 330 328 313 307 305 308 317 323 319 310 311 313 326 333 330
194 197 198 162 164 173 181 185 185 178 159 155 192 210 203 206 207 247 260 276 296 302 309 308 307 313 314 320 312 305 297 313 311 315 315 313 317 318 320 323 333 329 322
205 204 189 162 163 173 187 181 172 155 148 186 208 206 225 211 282 249 268 283 300 309 307 305 304 297 308 312 308 300 316 316 305 305 301 308 316 317 318 317 312 312 317
207 210 163 155 169 178 186 164 151 146 175 206 217 221 31 315 252 258 267 290 301 298 301 298 298 327 326 305 287 293 307 310 312 313 312 313 323 318 300 309 305 306 306
220 179 205 173 178 176 158 145 154 177 201 204 69 357 305 271 281 297 302 291 288 303 304 297 307 314 317 287 285 295 289 313 311 309 313 316 314 320 333 348 325 317 303
314 176 198 181 170 159 156 150 172 180 136 44 359 287 297 312 320 295 291 292 297 298 297 304 315 308 291 283 269 277 291 312 304 301 303 313 309 309 311 311 310 313 305
328 16 127 132 128 132 141 154 158 133 96 15 268 328 324 290 290 286 295 296 294 294 297 305 306 302 288 270 256 265 290 310 296 295 305 305 302 311 312 319 321 314 311
19 58 112 113 114 119 124 120 103 119 178 23 324 314 315 295 297 297 294 300 296 298 286 294 285 285 290 266 248 257 290 296 290 296 297 298 297 286 300 315 318 314 311
71 97 97 101 110 102 105 105 63 35 5 317 351 298 292 293 288 287 287 289 292 293 276 270 264 266 278 271 240 252 270 281 281 290 300 302 284 293 316 319 315 309 309
76 92 99 104 89 83 84 72 54 293 28 3 296 285 283 287 295 294 290 292 295 289 293 286 279 278 271 263 260 258 261 272 271 281 289 301 304 315 315 312 308 299 307
77 87 85 79 78 73 61 36 14 0 325 278 280 295 298 295 292 291 288 285 282 298 295 282 275 271 269 267 266 259 258 264 260 271 276 283 291 306 312 315 305 299 315
71 66 78 74 61 61 62 237 334 268 268 300 289 288 294 294 291 293 294 296 280 286 281 279 268 266 274 275 270 251 252 256 257 273 274 276 291 300 301 305 299 297 309
75 78 78 75 79 126 253 254 265 285 278 284 291 290 290 291 290 285 279 284 283 270 264 267 265 268 271 268 266 261 252 249 248 264 277 275 297 289 287 295 303 303 303
85 83 88 190 245 259 270 279 276 284 287 282 287 289 286 286 286 285 287 286 292 279 266 268 264 263 266 257 261 257 256 240 240 239 266 287 286 274 291 295 296 298 304
99 153 226 249 293 308 301 300 292 287 286 291 293 291 292 289 283 280 283 286 288 285 284 274 268 270 265 264 269 266 262 261 267 263 269 274 276 270 267 282 288 289 299